[ hide orbit diagram ]
For accurate long-term ephemerides, please instead use our Horizons system.This orbit viewer was implemented using two-body methods, and hence should not be used for determining accurate long-term trajectories (over several years or decades) or planetary encounter circumstances.
[ revert to old Java-based viewer ]
Orbital Elements at Epoch 2458600.5 (2019-Apr-27.0) TDB
Reference: JPL 10 (heliocentric ecliptic J2000)
Element | Value | Uncertainty (1-sigma) | Units |
e | .05976432385236131 | 7.4131e-08 | |
a | 2.757593258928477 | 4.485e-08 | au |
q | 2.592787562348787 | 2.0083e-07 | au |
i | 11.36926365883684 | 9.827e-06 | deg |
node | 359.9615110424958 | 3.8524e-05 | deg |
peri | 230.2113725055991 | 9.3802e-05 | deg |
M | 39.32871065247857 | 8.2163e-05 | deg |
tp | 2458417.773747261909 (2018-Oct-26.27374726) | 0.00038257 | TDB |
period | 1672.606345195986 4.58 | 4.0805e-05 1.117e-07 | d yr |
n | .2152329512763013 | 5.2508e-09 | deg/d |
Q | 2.922398955508167 | 4.753e-08 | au |
|
| | Orbit Determination Parameters
Additional Information
|
[ show covariance matrix ]
Physical Parameter Table
Parameter |
Symbol |
Value |
Units |
Sigma |
Reference |
Notes |
absolute magnitude |
H |
16.4 |
|
n/a |
MPO434663 |
|
|
447493 (2006 RG71) Discovered 2006-Sep-15 by Spacewatch at Kitt Peak |
Reference: | Last Updated: 2015-10-28 |
|
Alternate Designations
2006 RG71 = 2013 CF124 = 2015 RH137 |
|
|